Simultaneous Nadir Overpasses (SNOs) Predictions

Prediction of SNOs between LANDSAT-8 and NOAA-19 Satellite Orbit:

Table of predicted SNOs for the next 14.0 days since TLE Epoch: 7/15/2023
Index Date (LANDSAT-8) Time (LANDSAT-8) Lat,Lon (LANDSAT-8) SZA (LANDSAT-8 ) Date (NOAA-19) Time (NOAA-19) Lat,Lon (NOAA-19) SZA (NOAA-19 ) Distance(km) Time Diff (sec)
1 07/17/2023 02:03:41 80.94,-173.52 61.47 07/17/2023 02:03:55 80.94,-173.35 61.50 3.03 14
2 07/19/2023 07:37:25 -80.94, -76.95 118.15 07/19/2023 07:36:19 -80.94, -77.07 118.19 2.15 66
3 07/19/2023 08:26:51 80.95, 90.76 61.87 07/19/2023 08:27:22 80.94, 90.62 61.87 2.53 31
4 07/21/2023 14:00:35 -80.94,-172.76 117.73 07/21/2023 13:59:45 -80.94,-172.67 117.75 1.50 50
5 07/21/2023 14:50:01 80.94, -5.08 62.28 07/21/2023 14:50:48 80.94, -5.12 62.30 0.77 47
6 07/23/2023 20:23:45 -80.93, 91.32 117.31 07/23/2023 20:23:12 -80.94, 91.29 117.31 0.99 33
7 07/23/2023 21:13:11 80.93,-101.03 62.71 07/23/2023 21:14:14 80.94,-100.94 62.75 1.97 63
8 07/26/2023 02:46:53 -80.94, -4.37 116.81 07/26/2023 02:46:37 -80.94, -4.43 116.82 1.02 16



Historial Predications of SNOs between LANDSAT-8 and NOAA-19
